Regional Weather Roundup
Issued by NWS

Home | Current Version | Previous Version | Graphics & Text | Print | Product List | Glossary On
Versions: 1 2 3 4 5 6 7 8 9 10 11 12 13 14 15 16 17 18 19 20 21 22 23 24 25 26 27 28 29 30 31 32 33 34 35 36 37 38 39 40 41 42 43 44 45 46 47 48 49 50
000
ASUS43 KDMX 200407
RWRIA

WEATHER ROUNDUP FOR IOWA
NATIONAL WEATHER SERVICE DES MOINES IA
1000 PM CST FRI DEC 19 2014

NOTE: "FAIR" INDICATES FEW OR NO CLOUDS BELOW 12,000 FEET WITH NO
SIGNIFICANT WEATHER AND/OR OBSTRUCTIONS TO VISIBILITY.

* - THESE STATIONS ARE NOT NWS STATIONS...THUS NOT UNDER NWS
QUALITY CONTROL.  THEY ALSO DO NOT REPORT WEATHER SUCH
AS PRECIPITATION OR FOG.

IAZ001>003-012>014-020>022-031>034-043>046-200500-
   NORTHWEST IOWA

CITY           SKY/WX    TMP DP  RH WIND       PRES   REMARKS
CARROLL *      CLOUDY    30  28  93 S13       30.15S FOG     WCI  20
CHEROKEE *     CLOUDY    32  30  93 S7        30.13R FOG     WCI  26
DENISON *      CLOUDY    30  30 100 S8        30.13R FOG     WCI  23
LE MARS *      CLOUDY    32  30  93 S9        30.11S WCI  24
ORANGE CITY *  CLOUDY    32  28  86 S7        30.10S FOG     WCI  26
SHELDON *      CLOUDY    30  30 100 S13       30.10R WCI  20
SIOUX CITY     CLOUDY    33  29  85 SE8       30.11S WCI  26
SPENCER        CLOUDY    32  27  81 S14       30.12R WCI  22
STORM LAKE *   CLOUDY    30  28  93 S13       30.12S WCI  20
$$

IAZ055>058-069>071-079>083-090>094-200500-
   SOUTHWEST IOWA

CITY           SKY/WX    TMP DP  RH WIND       PRES   REMARKS
ATLANTIC *     CLOUDY    30  28  93 S10G16    30.16S WCI  21
AUDUBON *      MOCLDY    28  23  80 S8        30.16S HAZE    WCI  20
CLARINDA *     CLOUDY    30  30 100 S9        30.21R WCI  22
COUNCIL BLFS * CLOUDY    30  30 100 S10       30.13S FOG     WCI  21
CRESTON *      CLOUDY    28  30 100 S10       30.17S FOG     WCI  19
HARLAN  *      CLOUDY    30  30 100 S6        30.18F WCI  24
LAMONI         CLOUDY    31  30  96 S8        30.18F FOG     WCI  23
RED OAK *      CLOUDY    30  28  93 S8G15     30.18S WCI  23
SHENANDOAH *   CLOUDY    30  28  93 S8        30.19F WCI  23
$$

IAZ047>049-059>061-072>074-084-200500-
   CENTRAL IOWA

CITY           SKY/WX    TMP DP  RH WIND       PRES   REMARKS
AMES           CLOUDY    29  27  92 SE7       30.19S FOG     WCI  22
ANKENY *       CLOUDY    30  30 100 SE7       30.19F FOG     WCI  23
CHARITON *     CLOUDY    32  32 100 S8        30.19F FOG     WCI  25
DES MOINES     FRZ DRZL  32  29  88 SE8       30.19F FOG     WCI  25
GRINNELL*      CLOUDY    28  27  93 SE9       30.21F WCI  20
KNOXVILLE *    CLOUDY    30  28  93 SE9       30.19F FOG     WCI  22
MARSHALLTOWN   CLOUDY    29  25  85 S8        30.20S WCI  21
PELLA *        CLOUDY    30  27  86 SE7       30.23S WCI  23
PERRY *        CLOUDY    32  30  93 S12       30.17F WCI  23
$$

IAZ004>006-015-016-023>025-035-036-200500-
   NORTH CENTRAL IOWA

CITY           SKY/WX    TMP DP  RH WIND       PRES   REMARKS
ALGONA *       CLOUDY    30  27  86 S12       30.15S HAZE    WCI  21
CLARION *      CLOUDY    30  30 100 S10       30.17S FOG     WCI  21
ESTHERVILLE    CLOUDY    30  29  96 S10       30.12R FOG     WCI  21
FORT DODGE *   CLOUDY    30  28  93 S8        30.16S WCI  23
MASON CITY     CLOUDY    28  26  92 SE8       30.18F WCI  20
FOREST CITY *  CLOUDY    30  28  93 SE9       30.16S WCI  22
IOWA FALLS *   CLOUDY    30  27  86 SE10      30.19S WCI  21
$$

IAZ007>011-017>019-026>030-037>042-050>054-066-200500-
   NORTHEAST IOWA

CITY           SKY/WX    TMP DP  RH WIND       PRES   REMARKS
CEDAR RAPIDS   CLOUDY    29  23  78 SE5       30.23R WCI  24
CHARLES CITY * CLOUDY    28  25  86 SE9       30.20S WCI  20
CLINTON *      CLOUDY    27  21  80 SE5       30.28S WCI  21
DECORAH *      CLOUDY    27  23  86 VRB5      30.21R WCI  21
DUBUQUE        CLOUDY    26  22  84 S8        30.23S WCI  18
MONTICELLO *   CLOUDY    28  25  86 SE6       30.24S WCI  22
OELWEIN *      CLOUDY    28  25  86 SE9       30.21F WCI  20
WATERLOO       CLOUDY    29  23  78 S10       30.21S WCI  20
$$

IAZ064-065-067-068-078-200500-
   EAST CENTRAL IOWA

CITY           SKY/WX    TMP DP  RH WIND       PRES   REMARKS
DAVENPORT      CLOUDY    28  22  78 SE7       30.26S WCI  21
IOWA CITY      CLOUDY    30  24  78 SE3       30.27R
MT. PLEASANT * CLOUDY    30  27  86 CALM      30.26R FOG
MUSCATINE *    CLOUDY    32  23  69 SE3       30.27S
QUAD CITIES    CLOUDY    29  23  78 E3        30.26S
$$

IAZ062-063-075>077-085>089-095>099-200500-
   SOUTHEAST IOWA

CITY           SKY/WX    TMP DP  RH WIND       PRES   REMARKS
BURLINGTON     CLOUDY    31  25  78 S3        30.25S
FAIRFIELD *    CLOUDY    30  27  86 SE6       30.25R WCI  24
FORT MADISON * CLOUDY    34  28  80 S5        30.26S WCI  30
KEOKUK *       CLOUDY    32  27  80 SE5       30.25S WCI  27
OSKALOOSA *    CLOUDY    30  27  86 S5        30.23F FOG     WCI  25
CENTERVILLE *  CLOUDY    30  30 100 SE7       30.22F WCI  23
OTTUMWA        CLOUDY    30  25  81 S8        30.23S WCI  22
WASHINGTON *   CLOUDY    30  30 100 CALM      30.25S
$$

ABBREVIATIONS USED IN REMARKS
   TC - TEMPERATURES IN CELSIUS
  WCI - WIND CHILL INDEX
   HX - HEAT INDEX
  VSB - VISIBILITY
$$




USA.gov is the U.S. government's official web portal to all federal, state and local government web resources and services.